EW0734 Weather Reports


Display with metric or nautical units.
time (UTC)temp
F
wind
direction
speed
MPH
gust
MPH
rain 1hr
in
rain 24hr
in
rain mn
in
humidity
%
barometer
mb
20260509020025 56 0.0 0.0 0.00 0.00 0.00 59 1011.4
20260509015025 57 0.0 0.0 0.00 0.00 0.00 57 1011.3
20260509014026 57 0.0 0.0 0.00 0.00 0.00 57 1011.3
20260509013046 58 0.0 0.0 0.00 0.00 0.00 55 1011.2
20260509012026 59 0.0 0.0 0.00 0.00 0.00 54 1011.2
20260509011025 60 0.0 0.0 0.00 0.00 0.00 52 1011.1
20260509010025 60 0.0 1.0 0.00 0.00 0.00 51 1010.9
20260509005045 61 0.0 0.0 0.00 0.00 0.00 49 1010.9
20260509004026 63 0.0 0.0 0.00 0.00 0.00 49 1011.0
20260509003026 64 0.0 0.0 0.00 0.00 0.00 47 1010.9
20260509002025 65 0.0 0.0 0.00 0.00 0.00 45 1010.8
20260509001026 65 0.0 1.0 0.00 0.00 0.00 44 1010.7
20260509000045 66 0.0 1.0 0.00 0.00 0.00 41 1010.6
20260508235025 67 0.0 1.0 0.00 0.00 0.00 41 1010.5
20260508234026 68 0.0 1.0 0.00 0.00 0.00 40 1010.5
20260508233045 68 0.0 2.0 0.00 0.00 0.00 39 1010.4
20260508232045 69 0.0 2.0 0.00 0.00 0.00 38 1010.3
20260508231106 69 68 1.0 6.0 0.00 0.00 0.00 39 1010.2
20260508230026 69 0.0 3.0 0.00 0.00 0.00 38 1010.1
20260508225045 69 0.0 1.0 0.00 0.00 0.00 39 1010.2
20260508224025 69 68 1.0 3.0 0.00 0.00 0.00 38 1010.2
20260508223025 70 0.0 1.0 0.00 0.00 0.00 39 1010.1
20260508222026 70 0.0 4.0 0.00 0.00 0.00 37 1010.3
20260508221025 71 68 1.0 6.0 0.00 0.00 0.00 37 1010.3
20260508220025 71 68 1.0 5.0 0.00 0.00 0.00 35 1010.3
20260508215025 72 68 1.0 5.0 0.00 0.00 0.00 35 1010.3
20260508214025 72 90 1.0 4.0 0.00 0.00 0.00 33 1010.3
20260508213025 72 0.0 2.0 0.00 0.00 0.00 34 1010.4
20260508212045 72 0.0 3.0 0.00 0.00 0.00 35 1010.5
20260508211025 72 68 1.0 4.0 0.00 0.00 0.00 34 1010.5
20260508210026 72 90 1.0 4.0 0.00 0.00 0.00 34 1010.5
20260508205025 72 0.0 1.0 0.00 0.00 0.00 36 1010.5
20260508204025 73 0.0 2.0 0.00 0.00 0.00 36 1010.6
20260508203025 73 90 1.0 3.0 0.00 0.00 0.00 37 1010.6
20260508202025 74 0.0 3.0 0.00 0.00 0.00 32 1010.8
20260508201024 74 0.0 4.0 0.00 0.00 0.00 33 1010.9
20260508200026 73 68 1.0 5.0 0.00 0.00 0.00 34 1011.0
20260508195025 74 90 1.0 5.0 0.00 0.00 0.00 33 1011.3
20260508194024 75 0.0 2.0 0.00 0.00 0.00 34 1011.2
20260508193025 75 68 1.0 7.0 0.00 0.00 0.00 35 1011.3
20260508192025 75 68 1.0 6.0 0.00 0.00 0.00 34 1011.6
20260508191025 73 68 1.0 6.0 0.00 0.00 0.00 35 1011.7
20260508190025 74 0.0 2.0 0.00 0.00 0.00 34 1012.0
20260508185026 74 90 1.0 5.0 0.00 0.00 0.00 37 1012.1
20260508184026 73 0.0 1.0 0.00 0.00 0.00 37 1012.3
20260508183045 74 0.0 1.0 0.00 0.00 0.00 37 1012.3
20260508182025 74 68 1.0 3.0 0.00 0.00 0.00 36 1012.4
20260508181024 73 0.0 1.0 0.00 0.00 0.00 36 1012.6
20260508180025 71 68 1.0 4.0 0.00 0.00 0.00 38 1012.7
20260508175025 73 90 2.0 7.0 0.00 0.00 0.00 36 1012.9
20260508174046 74 0.0 1.0 0.00 0.00 0.00 36 1013.0
20260508173025 74 0.0 1.0 0.00 0.00 0.00 37 1013.1
20260508172025 73 0.0 1.0 0.00 0.00 0.00 36 1013.1
20260508171126 72 0.0 3.0 0.00 0.00 0.00 41 1013.3
20260508170024 72 68 1.0 5.0 0.00 0.00 0.00 41 1013.5
20260508165024 72 0.0 5.0 0.00 0.00 0.00 38 1013.5
20260508164025 71 0.0 4.0 0.00 0.00 0.00 38 1013.8
20260508163045 71 0.0 1.0 0.00 0.00 0.00 39 1013.9
20260508162024 71 0.0 2.0 0.00 0.00 0.00 40 1014.2
20260508161024 70 0.0 2.0 0.00 0.00 0.00 41 1014.2
20260508160025 71 0.0 2.0 0.00 0.00 0.00 40 1014.4
20260508155024 70 0.0 4.0 0.00 0.00 0.00 44 1014.4
20260508154025 69 0.0 2.0 0.00 0.00 0.00 41 1014.4
20260508153025 69 0.0 2.0 0.00 0.00 0.00 40 1014.5
20260508152024 68 0.0 2.0 0.00 0.00 0.00 39 1014.6
20260508151024 68 0.0 2.0 0.00 0.00 0.00 40 1014.7
20260508150024 68 0.0 1.0 0.00 0.00 0.00 40 1014.7
20260508145025 67 0.0 2.0 0.00 0.00 0.00 42 1014.9
20260508144045 68 0.0 1.0 0.00 0.00 0.00 40 1015.0
20260508143044 66 0.0 1.0 0.00 0.00 0.00 44 1015.0
20260508142024 65 0.0 1.0 0.00 0.00 0.00 45 1015.0
20260508141045 64 0.0 2.0 0.00 0.00 0.00 49 1015.1
20260508140024 62 0.0 1.0 0.00 0.00 0.00 54 1015.1
20260508135044 61 0.0 1.0 0.00 0.00 0.00 56 1015.3
20260508134024 59 0.0 0.0 0.00 0.00 0.00 64 1015.3
20260508133024 57 0.0 1.0 0.00 0.00 0.00 72 1015.4
20260508132047 54 0.0 1.0 0.00 0.00 0.00 82 1015.4
20260508131024 51 0.0 1.0 0.00 0.00 0.00 87 1015.3
20260508130026 49 0.0 0.0 0.00 0.00 0.00 33 1015.3
20260508125024 48 0.0 0.0 0.00 0.00 0.00 14 1015.3
20260508124027 47 0.0 0.0 0.00 0.00 0.00 10 1015.4
20260508123046 46 0.0 0.0 0.00 0.00 0.00 12 1015.3
20260508122027 45 0.0 0.0 0.00 0.00 0.00 12 1015.0
20260508121027 44 0.0 0.0 0.00 0.00 0.00 13 1015.0
20260508120026 43 0.0 0.0 0.00 0.00 0.00 14 1015.0
20260508115026 42 0.0 0.0 0.00 0.00 0.00 14 1014.9
20260508114026 41 0.0 0.0 0.00 0.00 0.00 16 1014.8
20260508113026 41 0.0 0.0 0.00 0.00 0.00 17 1014.7
20260508112026 40 0.0 0.0 0.00 0.00 0.00 18 1014.6
20260508111026 40 0.0 0.0 0.00 0.00 0.00 20 1014.4
20260508110522 0 0.0 0.0 0.00 0.00 0.00
20260508110025 0 0.0 0.0 0.00 0.00 0.00
20260508105024 0 0.0 0.0 0.00 0.00 0.00
20260508104545 0 0.0 0.0 0.00 0.00 0.00
20260508104023 0 0.0 0.0 0.00 0.00 0.00
20260508103525 0 0.0 0.0 0.00 0.00 0.00
20260508102525 0 0.0 0.0 0.00 0.00 0.00
20260508102045 0 0.0 0.0 0.00 0.00 0.00
20260508101523 0 0.0 0.0 0.00 0.00 0.00
20260508101025 0 0.0 0.0 0.00 0.00 0.00
20260508100045 0 0.0 0.0 0.00 0.00 0.00
20260508095539 0 0.0 0.0 0.00 0.00 0.00
20260508095019 0 0.0 0.0 0.00 0.00 0.00
20260508094524 0 0.0 0.0 0.00 0.00 0.00
20260508093525 0 0.0 0.0 0.00 0.00 0.00
20260508093100 0 0.0 0.0 0.00 0.00 0.00
20260508092519 0 0.0 0.0 0.00 0.00 0.00
20260508092025 0 0.0 0.0 0.00 0.00 0.00
20260508091025 0 0.0 0.0 0.00 0.00 0.00
20260508090556 0 0.0 0.0 0.00 0.00 0.00
20260508090054 0 0.0 0.0 0.00 0.00 0.00
20260508085025 0 0.0 0.0 0.00 0.00 0.00
20260508084102 0 0.0 0.0 0.00 0.00 0.00 27
20260508083539 0 0.0 0.0 0.00 0.00 0.00 27
20260508083025 43 0.0 0.0 0.00 0.00 0.00 27 1012.7
20260508082026 44 0.0 0.0 0.00 0.00 0.00 22 1012.6
20260508081027 44 0.0 0.0 0.00 0.00 0.00 24 1012.5
20260508080025 44 0.0 0.0 0.00 0.00 0.00 26 1012.5
20260508075025 45 0.0 0.0 0.00 0.00 0.00 25 1012.4
20260508074026 45 0.0 0.0 0.00 0.00 0.00 23 1012.4
20260508073025 45 0.0 0.0 0.00 0.00 0.00 21 1012.3
20260508072026 46 0.0 0.0 0.00 0.00 0.00 19 1012.2
20260508071025 45 0.0 0.0 0.00 0.00 0.00 22 1012.0
20260508070026 45 0.0 0.0 0.00 0.00 0.00 23 1011.8
20260508065025 45 0.0 0.0 0.00 0.00 0.00 24 1011.7
20260508064026 46 0.0 0.0 0.00 0.00 0.00 22 1011.6
20260508063025 46 0.0 0.0 0.00 0.00 0.00 22 1011.4
20260508062025 46 0.0 0.0 0.00 0.00 0.00 23 1011.3
20260508061046 45 0.0 1.0 0.00 0.00 0.00 26 1011.2
20260508060026 45 0.0 0.0 0.00 0.00 0.00 29 1011.1
20260508055025 45 0.0 0.0 0.00 0.00 0.00 36 1011.2
20260508054025 45 0.0 0.0 0.00 0.00 0.00 44 1011.1
20260508053025 45 0.0 0.0 0.00 0.00 0.00 46 1011.1
20260508052026 45 0.0 0.0 0.00 0.00 0.00 46 1011.1
20260508051026 46 0.0 0.0 0.00 0.00 0.00 46 1011.1
20260508050026 46 0.0 0.0 0.00 0.00 0.00 47 1011.0
20260508045046 46 0.0 0.0 0.00 0.00 0.00 47 1010.9
20260508044046 46 0.0 0.0 0.00 0.00 0.00 53 1010.7
20260508043025 46 0.0 0.0 0.00 0.00 0.00 57 1010.7
20260508042025 46 0.0 0.0 0.00 0.00 0.00 59 1010.7
20260508041045 47 0.0 0.0 0.00 0.00 0.00 64 1010.7
20260508040031 47 0.0 0.0 0.00 0.00 0.00 65 1010.6
20260508035026 47 0.0 0.0 0.00 0.00 0.00 72 1010.5
20260508034025 47 0.0 0.0 0.00 0.00 0.00 75 1010.4
20260508033046 48 0.0 0.0 0.00 0.00 0.00 78 1010.4
20260508032046 48 0.0 0.0 0.00 0.00 0.00 80 1010.4
20260508031106 49 0.0 0.0 0.00 0.00 0.00 80 1010.3
20260508030046 49 0.0 0.0 0.00 0.00 0.00 81 1010.4
20260508025025 49 0.0 0.0 0.00 0.00 0.00 83 1010.3
20260508024026 50 0.0 0.0 0.00 0.00 0.00 83 1010.3
20260508023045 50 0.0 0.0 0.00 0.00 0.00 84 1010.3
20260508022025 50 0.0 0.0 0.00 0.00 0.00 85 1010.3
20260508021046 50 0.0 0.0 0.00 0.00 0.00 86 1010.3